Location: Tucson
(32.2217°N, 110.9265°W)
Time: 14:22:23
(UTC-07:00)

Tiangong 1 - Visible Passes

Search period start: 20 February 2018 00:00
Search period end: 02 March 2018 00:00
Orbit: 248 x 270 km, 42.8° (Epoch: 20 February)

Date Brightness Start Highest point End Pass type
(mag) Time Alt. Az. Time Alt. Az. Time Alt. Az.
20 Feb 1.8 06:32:21 10° W 06:34:14 22° SW 06:36:07 10° SSE visible
21 Feb 2.7 06:27:10 10° WSW 06:28:10 12° SW 06:29:11 10° SSW visible
28 Feb 3.8 20:04:23 10° W 20:04:50 14° WNW 20:04:50 14° WNW visible
01 Mar 3.3 19:56:29 10° WNW 19:57:19 15° NW 19:57:19 15° NW visible
